Weather in Tucson

United States     32°13′16″N   110°55′33″W
temp.,
°C
wind,
m/s
gust,
m/s
humid.,
%
clouds,
%
prec.,
mm/h
press.,
hPa
HPBL,
m
23 may, mon
mon2323:00+26nnw23190 0.0 1012417
02:00+24se12220 0.0 1011305
05:00+23se232799 0.0 1011259
08:00+24sse23257 0.0 1012526
11:00+29sw25130 0.0 10102160
14:00+32wnw578100 0.0 10063010
17:00+32w98927 0.0 10053367
20:00+28w891482 0.0 1006857
24 may, tue
tue2423:00+25wnw241718 0.0 1008375
02:00+23se33208 0.0 1007321
05:00+22se22195 0.0 1008265
08:00+23sse21175 0.0 1009470
11:00+28w23120 0.0 1008969
14:00+32wnw6791 0.0 10063065
17:00+33nw6891 0.0 10043098
20:00+30nnw57134 0.0 10051182
25 may, wed
wed2523:00+26wnw37235 0.0 1008442
02:00+25sse11251 0.0 1008324
05:00+24sse11265 0.0 1009153
08:00+26sse11230 0.0 1011405
11:00+30w22155 0.0 10101159
14:00+34wnw3393 0.0 10072597
17:00+35nw5590 0.0 10062803
20:00+32n55100 0.0 1007850
26 may, thu
thu2623:00+28wnw47170 0.0 1010450
02:00+27n12200 0.0 1010136
05:00+25sse12220 0.0 1010112
08:00+27s11200 0.0 1012429
11:00+31w11155 0.0 1012822
14:00+35wnw12100 0.0 10091887
17:00+37nnw35100 0.0 10063088
20:00+34wnw57110 0.0 10081363
27 may, fri
fri2723:00+28nnw34210 0.0 1011434
02:00+27nw23220 0.0 1011292
05:00+26se23230 0.0 1011235
08:00+28sse22215 0.0 1012401
11:00+32ssw0213100 0.0 10111305
14:00+36wnw3575 0.0 10082859
17:00+37wsw8765 0.0 10073496
20:00+32w689100 0.0 1008774